Dewpoint
33 27 26 25 25 26 28 20 18 23 21 22 23 29 38 51 51 51 51 52 52 53 54 58 62 64 65 66 68 69 70 70 70 70 70 70 70 69 69 71 72 73 72 72
26 27 29 31 30 28 26 18 20 20 20 20 26 27 36 45 50 51 51 52 52 53 56 59 63 64 66 68 68 69 70 70 71 70 69 70 69 68 69 69 71 72 72 71
24 26 30 31 23 20 23 20 22 23 22 19 25 27 34 49 55 54 52 52 53 54 57 59 64 63 65 68 69 69 70 70 70 70 70 70 70 70 68 68 68 70 72 72
24 26 25 22 24 23 35 24 23 22 20 16 22 22 32 42 54 57 58 56 55 56 60 61 65 65 64 65 69 70 71 70 71 71 70 69 68 67 68 68 68 68 72 72
21 21 21 25 23 22 21 25 24 25 20 29 21 20 31 46 52 55 58 60 61 62 61 63 65 66 65 67 68 71 70 70 70 71 70 70 69 69 69 69 70 70 70 72
22 22 19 21 24 24 26 25 25 28 23 20 21 22 27 43 51 53 57 59 61 61 63 64 66 67 67 69 69 71 71 70 70 70 71 71 70 70 69 70 70 70 71 70
21 21 22 20 20 24 24 22 20 22 23 22 26 27 29 37 48 55 55 58 59 59 62 64 66 67 68 69 70 70 71 71 71 71 71 71 71 72 71 70 71 71 71 70
17 19 24 25 21 21 23 21 21 22 20 22 29 32 34 40 47 51 56 57 57 57 58 62 63 64 65 67 69 70 70 70 71 72 72 73 72 72 72 72 72 72 72 72
21 21 25 25 23 22 25 22 23 21 25 19 23 34 39 42 46 48 50 54 55 56 58 59 59 60 61 62 64 66 69 68 67 70 71 72 73 72 72 72 72 72 72 72
22 23 24 26 24 25 22 22 18 20 19 22 24 31 34 37 42 46 50 53 55 56 57 59 59 59 59 60 60 61 63 63 64 65 66 67 67 69 70 71 70 70 71 72
25 25 22 26 24 23 23 23 26 23 23 22 23 30 37 37 42 45 49 52 53 52 54 55 56 57 58 59 60 60 61 61 62 64 66 66 67 67 68 68 69 69 70 70
28 22 22 22 29 27 25 24 27 26 26 26 24 23 33 37 40 44 45 47 51 52 53 53 54 56 56 56 57 58 60 61 63 63 64 64 65 65 65 65 65 66 67 68
28 25 22 20 20 22 25 28 31 29 28 27 25 25 32 39 40 42 44 49 50 51 52 53 54 55 56 58 58 58 57 58 60 62 64 65 64 64 64 64 65 65 66 66
40 28 22 18 17 23 25 27 28 30 28 28 26 27 30 39 43 47 48 50 50 52 52 53 53 54 54 54 54 55 56 58 61 62 64 64 63 63 63 63 64 65 65 65
25 26 29 26 24 26 28 28 27 23 25 20 21 26 26 36 43 47 48 49 51 52 50 50 50 51 52 52 53 54 56 57 59 61 63 63 63 63 63 64 64 65 65 65
30 25 30 29 31 30 30 30 29 28 25 24 23 22 31 39 46 47 47 46 48 50 49 50 51 51 51 52 53 55 56 58 59 60 61 62 63 62 62 63 63 63 64 64
34 34 28 29 32 29 28 28 28 31 33 28 24 25 45 45 46 47 46 47 50 50 51 51 51 52 52 53 55 55 58 59 60 61 62 63 63 62 62 62 61 61 61 62
33 33 32 31 32 26 29 33 32 40 45 41 44 45 45 45 48 48 49 48 48 48 48 49 51 54 55 54 57 57 59 59 59 60 61 62 62 61 60 59 59 59 60 61
32 30 30 27 28 29 30 31 32 30 42 47 45 47 48 47 46 45 49 47 46 48 48 50 52 53 53 56 57 59 59 58 59 59 60 61 61 60 59 59 58 58 59 60
33 30 28 31 25 24 31 32 42 37 39 47 46 45 46 44 41 44 48 51 50 51 54 54 55 55 57 56 58 58 58 58 59 59 60 61 60 58 58 57 57 58 59 60
28 31 26 32 28 29 33 38 40 31 33 47 45 45 43 43 44 45 49 48 49 52 53 53 54 57 57 57 58 58 58 58 59 59 59 59 58 57 57 56 57 57 59 61
22 27 30 31 28 25 41 40 35 39 45 45 45 46 46 46 49 50 50 50 51 51 50 53 54 55 56 57 57 57 57 58 58 58 58 57 57 57 58 56 57 58 60 60
24 33 32 33 33 40 44 45 47 44 44 44 44 45 45 46 48 51 50 50 50 50 51 53 53 52 55 57 57 56 57 57 58 57 57 57 58 57 57 56 57 58 59 57
32 37 34 35 40 42 45 43 44 45 43 44 45 47 49 50 50 49 48 49 50 51 52 54 53 51 53 57 57 57 57 58 57 57 56 55 55 55 55 57 58 59 58 57
32 34 36 37 42 41 45 48 45 46 46 49 50 51 50 49 49 49 49 50 51 52 54 55 53 53 54 56 56 57 58 57 57 55 55 55 55 55 56 57 58 59 59 56
38 35 32 32 37 39 46 50 50 49 50 49 50 49 50 50 49 50 49 50 51 52 53 54 54 55 56 55 55 56 57 57 55 54 54 54 55 56 57 55 57 55 52 49
Lifted_Index
5 5 4 3 2 2 1 1 1 0 1 1 1 2 2 -0 -1 -2 -2 -3 -3 -4 -3 -3 -2 -2 -3 -4 -5 -6 -6 -6 -6 -7 -7 -7 -7 -7 -7 -7 -7 -7 -7 -7
5 4 4 3 3 2 2 1 1 0 1 1 1 2 1 -0 -1 -2 -2 -3 -3 -4 -4 -3 -3 -2 -3 -4 -5 -5 -6 -6 -7 -7 -7 -7 -7 -7 -6 -6 -7 -7 -7 -7
5 4 4 4 3 3 2 1 1 1 1 1 1 1 0 -1 -2 -2 -2 -3 -3 -4 -4 -4 -3 -3 -3 -4 -4 -5 -6 -6 -6 -7 -6 -7 -7 -7 -6 -6 -6 -6 -7 -7
4 4 4 4 4 3 3 2 2 2 1 1 1 0 -1 -2 -3 -3 -3 -3 -4 -4 -4 -5 -5 -5 -5 -4 -4 -5 -6 -6 -6 -6 -6 -6 -6 -6 -6 -6 -6 -6 -7 -7
4 4 4 4 4 3 3 3 2 2 1 1 1 1 -0 -2 -3 -4 -4 -4 -4 -5 -5 -6 -6 -6 -6 -5 -5 -5 -5 -6 -6 -6 -6 -6 -6 -6 -6 -6 -6 -6 -7 -7
4 4 4 4 4 3 3 2 2 2 1 1 1 1 0 -1 -3 -4 -5 -5 -5 -5 -6 -6 -7 -7 -6 -6 -5 -5 -5 -5 -5 -6 -6 -6 -6 -6 -6 -7 -7 -7 -7 -7
4 4 4 3 3 3 3 2 1 1 1 1 1 1 1 -0 -2 -4 -5 -6 -6 -6 -6 -6 -6 -6 -6 -6 -6 -6 -6 -6 -5 -5 -5 -5 -6 -6 -7 -7 -7 -7 -7 -7
4 4 3 3 2 3 3 2 1 1 1 1 1 1 1 1 -1 -3 -5 -5 -6 -6 -6 -6 -6 -6 -6 -6 -6 -6 -6 -6 -6 -6 -6 -6 -6 -6 -6 -6 -6 -7 -7 -7
3 3 3 3 3 3 3 3 3 2 1 1 1 1 1 1 -0 -2 -4 -5 -5 -5 -5 -4 -5 -5 -5 -5 -5 -5 -5 -5 -5 -5 -5 -6 -6 -6 -6 -6 -6 -6 -6 -6
3 3 3 3 3 3 3 3 3 3 2 1 1 1 1 1 -0 -1 -3 -4 -4 -4 -3 -3 -3 -3 -4 -4 -4 -3 -3 -3 -3 -3 -4 -4 -4 -4 -5 -5 -5 -5 -5 -5
2 2 2 2 2 2 2 3 3 3 2 1 1 2 1 0 -0 -1 -2 -3 -3 -3 -3 -3 -3 -3 -3 -3 -3 -2 -2 -2 -2 -2 -2 -3 -3 -3 -3 -3 -3 -3 -4 -4
2 2 2 2 2 2 2 3 3 3 3 2 2 2 1 0 -0 -1 -2 -2 -3 -3 -3 -3 -3 -3 -3 -3 -2 -2 -1 -1 -1 -1 -2 -2 -2 -2 -2 -1 -1 -1 -2 -2
1 1 1 1 1 2 2 2 3 3 3 3 3 2 1 1 0 -1 -1 -2 -2 -2 -3 -3 -3 -3 -3 -3 -2 -1 -0 0 0 -0 -1 -2 -2 -1 -1 -0 -0 -0 -1 -1
1 1 1 1 2 2 2 2 2 2 3 3 3 3 2 1 0 -0 -1 -1 -2 -2 -2 -3 -3 -2 -2 -2 -1 -0 1 1 1 0 -1 -1 -1 -1 -1 -0 -0 -0 -1 -1
1 1 1 2 2 2 2 2 2 3 3 3 3 3 3 2 1 -0 -1 -1 -2 -2 -2 -2 -2 -2 -2 -1 -0 1 1 1 1 1 -0 -0 -1 -1 -1 -0 -0 -0 -0 -1
2 2 2 2 3 3 2 2 3 3 3 3 3 3 3 3 2 0 -1 -2 -2 -1 -1 -1 -1 -1 -1 -0 1 1 1 1 1 1 0 -0 -1 -1 -1 -1 -1 -0 -0 -0
2 2 2 2 2 2 2 3 3 4 3 4 3 3 3 2 1 0 -0 -1 -1 -1 -1 -1 -1 -0 -0 0 0 0 1 1 1 1 0 -0 -1 -1 -1 -1 -1 -0 -0 -0
2 2 2 2 2 2 2 3 4 3 3 3 3 2 2 1 1 0 0 -0 -0 -0 -0 -0 -0 -0 -0 -0 -0 -0 0 1 1 1 1 -0 -1 -1 -1 -1 -1 -0 -0 -0
2 3 3 3 2 3 3 4 4 4 3 3 2 2 1 1 1 1 0 0 0 -0 -0 -0 -0 -0 -0 -1 -1 -0 0 1 1 1 1 -0 -1 -1 -1 -1 -0 0 0 -0
3 3 3 3 3 3 4 4 4 3 3 2 1 1 1 1 1 1 0 0 -0 -0 -0 -0 -1 -1 -1 -1 -1 -0 0 1 1 1 -0 -1 -1 -1 -1 0 1 1 0 -0
3 3 3 3 3 4 4 4 3 3 2 1 1 1 1 1 0 0 -0 -0 -0 -0 -0 -0 -0 -0 -1 -2 -2 -1 -0 0 0 -0 -1 -1 -1 -0 0 1 1 1 1 0
3 3 3 4 3 3 3 3 2 2 2 1 1 1 1 1 0 -0 -0 -0 -0 0 0 0 1 0 -0 -2 -2 -1 -1 -1 -1 -1 -1 -1 -0 0 1 1 1 1 1 1
3 3 3 3 3 3 2 2 2 2 2 1 1 1 1 1 1 1 1 1 1 1 1 1 1 1 -0 -1 -2 -2 -2 -2 -2 -2 -1 -1 0 1 1 1 1 1 1 1
3 3 3 2 2 2 2 3 2 2 2 2 2 2 2 1 1 1 2 2 2 2 2 1 1 1 0 -1 -1 -2 -2 -2 -2 -1 -1 -0 1 1 1 2 1 2 2 2
3 3 3 3 3 3 3 3 3 3 3 2 2 2 2 2 2 2 2 2 2 2 2 1 1 1 0 -0 -1 -1 -1 -2 -1 -1 -0 0 1 2 2 2 2 2 2 2
3 3 3 3 3 3 3 3 3 3 3 2 2 2 2 2 2 2 2 2 2 2 1 1 1 1 0 0 -0 -0 -1 -1 -1 -0 0 1 2 2 2 2 2 2 2 2